Weather History for 10866 - January, 2014

Change the Weather History Date:

Saturday, January 25, 2014

  Actual Average Record
Temperature  
Mean Temperature 34 °F -  
Max Temperature 37 °F 38 °F - ()
Min Temperature 32 °F 24 °F - ()
Degree Days  
Heating Degree Days 30    
Moisture  
Dew Point 31 °F    
Average Humidity 89    
Maximum Humidity 100    
Minimum Humidity 75    
Precipitation  
Precipitation 0.00 in - - ()
Sea Level Pressure  
Sea Level Pressure 30.00 in    
Wind  
Wind Speed 7 mph ()    
Max Wind Speed 10 mph    
Max Gust Speed -    
Visibility 5.8 miles    
Events Snow    
T = Trace of Precipitation, MM = Missing Value Source: Averaged Metar Reports

Daily Weather History Graph

Daily Weather History Graph

Search for Another Location

Airport or City:

Trip Planner

Search our weather history database for the weather conditions in past years. The results will help you decide how hot, cold, wet, or windy it might be!

Date:

Astronomy

Jan. 25, 2014 Rise Set
Actual Time 7:50 AM CET 5:00 PM CET
Civil Twilight 7:15 AM CET 5:34 PM CET
Nautical Twilight 6:37 AM CET 6:12 PM CET
Astronomical Twilight 6:01 AM CET 6:49 PM CET
Moon 2:00 AM CET (1/25) 11:50 AM CET (1/25)
Length of Visible Light 10h 18m
Length of Day
9h 10m
Last Quarter, 37% of the Moon is Illuminated
Jan 25
Last Quarter
Jan 30
New
Feb 6
First Quarter
Feb 15
Full
Feb 22
Last Quarter

Hourly Weather History & Observations

Time (CET) Temp. Windchill Dew Point Humidity Pressure Visibility Wind Dir Wind Speed Gust Speed Precip Events Conditions
12:20 AM 33.8 °F 28.6 °F 33.8 °F 100% 30.01 in 4.3 mi West 5.8 mph - N/A Snow Light Snow
12:50 AM 33.8 °F 27.0 °F 33.8 °F 100% 30.01 in 5.0 mi West 8.1 mph - N/A Snow Light Snow
1:20 AM 33.8 °F 27.0 °F 33.8 °F 100% 30.01 in 5.0 mi West 8.1 mph - N/A Snow Light Snow
1:50 AM 33.8 °F 27.0 °F 33.8 °F 100% 30.01 in 5.0 mi West 8.1 mph - N/A Snow Light Snow
2:20 AM 33.8 °F 27.7 °F 32.0 °F 93% 30.01 in 5.0 mi West 6.9 mph - N/A Snow Light Snow
2:50 AM 33.8 °F 27.7 °F 32.0 °F 93% 30.01 in 5.0 mi West 6.9 mph - N/A Snow Light Snow
3:20 AM 33.8 °F 27.7 °F 32.0 °F 93% 30.01 in 5.6 mi West 6.9 mph - N/A Snow Light Snow
3:50 AM 33.8 °F 27.0 °F 32.0 °F 93% 30.01 in 6.2 mi West 8.1 mph - N/A Snow Light Snow
4:20 AM 33.8 °F 26.4 °F 32.0 °F 93% 30.01 in 6.2 mi West 9.2 mph - N/A   Mostly Cloudy
4:50 AM 33.8 °F 27.7 °F 32.0 °F 93% 30.04 in 6.2 mi West 6.9 mph - N/A Snow Light Snow
5:20 AM 33.8 °F 27.0 °F 32.0 °F 93% 30.04 in 6.2 mi West 8.1 mph - N/A   Mostly Cloudy
5:50 AM 33.8 °F 27.0 °F 32.0 °F 93% 30.04 in 6.2 mi West 8.1 mph - N/A   Mostly Cloudy
6:20 AM 32.0 °F 23.6 °F 32.0 °F 100% 30.04 in 2.5 mi WNW 10.4 mph - N/A Snow Snow
6:50 AM 32.0 °F 24.2 °F 32.0 °F 100% 30.04 in 6.2 mi West 9.2 mph - N/A Snow Light Snow
7:20 AM 32.0 °F 24.8 °F 32.0 °F 100% 30.04 in 6.2 mi West 8.1 mph - N/A Snow Light Snow
7:50 AM 33.8 °F 27.7 °F 32.0 °F 93% 30.04 in 6.2 mi West 6.9 mph - N/A   Mostly Cloudy
8:20 AM 33.8 °F 27.7 °F 32.0 °F 93% 30.04 in 6.2 mi West 6.9 mph - N/A   Mostly Cloudy
8:50 AM 33.8 °F 27.7 °F 32.0 °F 93% 30.04 in 5.0 mi West 6.9 mph - N/A Snow Light Snow
9:20 AM 33.8 °F 27.7 °F 32.0 °F 93% 30.04 in 4.3 mi West 6.9 mph - N/A   Mostly Cloudy
9:50 AM 33.8 °F 27.7 °F 32.0 °F 93% 30.04 in 4.3 mi West 6.9 mph - N/A   Mostly Cloudy
10:20 AM 33.8 °F 27.0 °F 33.8 °F 100% 30.04 in 4.3 mi West 8.1 mph - N/A   Mostly Cloudy
10:50 AM 35.6 °F 28.6 °F 32.0 °F 87% 30.04 in 5.0 mi West 9.2 mph - N/A   Mostly Cloudy
11:20 AM 35.6 °F 28.6 °F 32.0 °F 87% 30.04 in 5.6 mi West 9.2 mph - N/A   Mostly Cloudy
11:50 AM 35.6 °F 29.9 °F 32.0 °F 87% 30.01 in 6.2 mi West 6.9 mph - N/A   Mostly Cloudy
12:20 PM 35.6 °F 29.2 °F 32.0 °F 87% 30.01 in 6.2 mi West 8.1 mph - N/A   Scattered Clouds
12:50 PM 35.6 °F 28.0 °F 33.8 °F 93% 30.01 in 6.2 mi WSW 10.4 mph - N/A   Scattered Clouds
1:20 PM 37.4 °F 31.4 °F 32.0 °F 81% 29.98 in 6.2 mi WNW 8.1 mph - N/A   Mostly Cloudy
1:50 PM 37.4 °F 30.8 °F 32.0 °F 81% 29.98 in 6.2 mi WNW 9.2 mph - N/A   Mostly Cloudy
2:20 PM 37.4 °F 30.3 °F 32.0 °F 81% 29.98 in 6.2 mi WNW 10.4 mph - N/A   Mostly Cloudy
2:50 PM 37.4 °F 30.8 °F 30.2 °F 75% 29.98 in 6.2 mi WNW 9.2 mph - N/A   Mostly Cloudy
3:20 PM 35.6 °F 29.9 °F 32.0 °F 87% 29.98 in 6.2 mi WNW 6.9 mph - N/A   Mostly Cloudy
3:50 PM 35.6 °F 29.2 °F 30.2 °F 81% 29.98 in 6.2 mi WNW 8.1 mph - N/A   Mostly Cloudy
4:20 PM 35.6 °F 28.6 °F 32.0 °F 87% 30.01 in 6.2 mi WNW 9.2 mph - N/A Snow Light Snow Showers
4:50 PM 35.6 °F 28.6 °F 32.0 °F 87% 30.01 in 6.2 mi NW 9.2 mph - N/A Snow Light Snow Showers
5:20 PM 33.8 °F 27.0 °F 30.2 °F 87% 30.01 in 6.2 mi NNW 8.1 mph - N/A   Mostly Cloudy
5:50 PM 33.8 °F 26.4 °F 28.4 °F 81% 30.01 in 6.2 mi NNW 9.2 mph - N/A   Mostly Cloudy
6:20 PM 33.8 °F 27.0 °F 28.4 °F 81% 30.01 in 6.2 mi NW 8.1 mph - N/A   Mostly Cloudy
6:50 PM 33.8 °F 27.0 °F 28.4 °F 81% 30.01 in 6.2 mi NW 8.1 mph - N/A Snow Light Snow
7:20 PM 33.8 °F 27.0 °F 28.4 °F 81% 30.01 in 6.2 mi WNW 8.1 mph - N/A   Mostly Cloudy
7:50 PM 33.8 °F 27.7 °F 26.6 °F 75% 30.01 in 6.2 mi WNW 6.9 mph - N/A Snow Light Snow
8:20 PM 33.8 °F 28.6 °F 28.4 °F 81% 29.98 in 6.2 mi WNW 5.8 mph - N/A   Mostly Cloudy
8:50 PM 33.8 °F 30.8 °F 26.6 °F 75% 29.98 in 6.2 mi West 3.5 mph - N/A   Mostly Cloudy
9:20 PM 32.0 °F - 28.4 °F 87% 29.95 in 6.2 mi WNW 2.3 mph - N/A   Mostly Cloudy
9:50 PM 32.0 °F 28.7 °F 28.4 °F 87% 29.95 in 6.2 mi West 3.5 mph - N/A   Mostly Cloudy
10:20 PM 32.0 °F 28.7 °F 30.2 °F 93% 29.92 in 6.2 mi SSE 3.5 mph - N/A   Mostly Cloudy
10:50 PM 32.0 °F - 30.2 °F 93% 29.92 in 6.2 mi South 2.3 mph - N/A   Mostly Cloudy
11:20 PM 32.0 °F 27.5 °F 30.2 °F 93% 29.89 in 6.2 mi South 4.6 mph - N/A   Mostly Cloudy
11:50 PM 32.0 °F 28.7 °F 28.4 °F 87% 29.86 in 6.2 mi South 3.5 mph - N/A   Mostly Cloudy